EW7837 Weather Reports


time (UTC)temp
F
wind
direction
speed
knots
gust
knots
rain 1hr
in
rain 24hr
in
rain mn
in
humidity
%
barometer
mb
20260902043015 70 246 0.0 0.0 0.00 0.00 0.00 79 1011.6
20260902041600 70 246 0.0 0.0 0.00 0.00 0.00 79 1011.5
20260902040058 71 246 0.0 0.0 0.00 0.00 0.00 79 1011.1
20260902034600 72 246 0.0 0.0 0.00 0.00 0.00 79 1010.9
20260902033054 72 246 0.0 0.0 0.00 0.00 0.00 78 1010.6
20260902031550 72 246 0.0 0.0 0.00 0.00 0.00 77 1010.5
20260902030047 73 246 0.0 0.0 0.00 0.00 0.00 77 1010.5
20260902024555 73 246 0.0 0.0 0.00 0.00 0.00 76 1010.4
20260902023047 74 246 0.0 0.0 0.00 0.00 0.00 75 1010.3
20260902021555 75 246 0.0 0.0 0.00 0.00 0.00 72 1010.2
20260902020047 76 246 0.0 0.0 0.00 0.00 0.00 71 1010.2
20260902014544 78 246 0.0 0.0 0.00 0.00 0.00 69 1010.2
20260902013044 79 246 0.0 0.0 0.00 0.00 0.00 67 1010.1
20260902011541 79 246 0.0 0.0 0.00 0.00 0.00 67 1010.2
20260902010040 80 247 0.0 0.0 0.00 0.00 0.00 67 1010.2
20260902004539 80 252 0.0 0.0 0.00 0.00 0.00 67 1010.3
20260902003040 80 257 0.0 0.0 0.00 0.00 0.00 66 1010.3
20260902001537 81 256 0.0 0.0 0.00 0.00 0.00 66 1010.4
20260902000038 81 255 0.0 0.0 0.00 0.00 0.00 66 1010.5
20260901234535 81 254 0.0 0.0 0.00 0.00 0.00 65 1010.5
20260901233035 80 236 0.0 0.0 0.00 0.00 0.00 65 1010.5
20260901231533 81 259 0.0 0.0 0.00 0.00 0.00 63 1010.6
20260901230042 83 269 0.0 0.0 0.00 0.00 0.00 62 1010.6
20260901224536 82 280 0.0 0.0 0.00 0.00 0.00 62 1010.6
20260901223033 82 254 0.9 0.0 0.00 0.00 0.00 64 1010.6
20260901221529 83 270 0.0 0.0 0.00 0.00 0.00 64 1010.7
20260901220038 83 274 0.0 0.0 0.00 0.00 0.00 64 1010.8
20260901214529 83 291 0.0 0.0 0.00 0.00 0.00 63 1010.9
20260901213041 81 269 0.0 0.0 0.00 0.00 0.00 68 1011.0
20260901211527 82 269 0.0 0.0 0.00 0.00 0.00 66 1011.0
20260901210027 82 271 0.9 0.0 0.00 0.00 0.00 66 1011.1
20260901204532 83 254 0.0 0.0 0.00 0.00 0.00 66 1011.1
20260901203032 83 259 0.0 0.0 0.00 0.00 0.00 67 1011.1
20260901201520 82 261 0.0 0.0 0.00 0.00 0.00 67 1011.2
20260901200017 82 269 0.0 0.0 0.00 0.00 0.00 67 1011.2
20260901194515 81 259 0.0 0.0 0.00 0.00 0.00 70 1011.4
20260901193015 81 274 0.0 0.0 0.00 0.00 0.00 70 1011.6
20260901191513 82 255 0.0 0.0 0.00 0.00 0.00 69 1011.7
20260901190008 81 269 0.0 0.0 0.00 0.00 0.00 69 1012.1
20260901184513 81 259 0.0 0.0 0.00 0.00 0.00 69 1012.1
20260901183002 81 259 0.0 0.0 0.00 0.00 0.00 71 1012.1
20260901181602 81 259 0.0 0.0 0.00 0.00 0.00 70 1011.9
20260901180054 80 259 0.0 0.0 0.00 0.00 0.00 70 1012.1
20260901174556 81 259 0.0 0.0 0.00 0.00 0.00 70 1012.1
20260901173047 80 259 0.0 0.0 0.00 0.00 0.00 69 1012.4
20260901171542 79 259 0.0 0.0 0.00 0.00 0.00 71 1012.2
20260901170033 78 259 0.0 0.0 0.00 0.00 0.00 73 1012.2
20260901164537 78 259 0.0 0.0 0.00 0.00 0.00 75 1011.8
20260901163027 76 259 0.0 0.0 0.00 0.00 0.00 77 1011.7
20260901161528 75 259 0.0 0.0 0.00 0.00 0.00 80 1011.9
20260901160034 74 259 0.0 0.0 0.00 0.00 0.00 82 1011.9
20260901154516 71 259 0.0 0.0 0.00 0.00 0.00 87 1011.8
20260901153014 71 259 0.0 0.0 0.00 0.00 0.00 88 1011.4
20260901151512 70 259 0.0 0.0 0.00 0.00 0.00 89 1011.5
20260901150039 69 259 0.0 0.0 0.00 0.00 0.00 90 1011.6
20260901144538 67 259 0.0 0.0 0.00 0.00 0.00 92 1011.6
20260901143039 66 259 0.0 0.0 0.00 0.00 0.00 92 1011.5
20260901141540 65 259 0.0 0.0 0.00 0.00 0.00 91 1011.1
20260901140038 65 259 0.0 0.0 0.00 0.00 0.00 91 1011.0
20260901134533 65 259 0.0 0.0 0.00 0.00 0.00 90 1011.1
20260901133025 65 259 0.0 0.0 0.00 0.00 0.00 90 1011.1
20260901131526 65 259 0.0 0.0 0.00 0.00 0.00 90 1011.0
20260901130028 65 259 0.0 0.0 0.00 0.00 0.00 90 1010.6
20260901124532 65 259 0.0 0.0 0.00 0.00 0.00 90 1010.6
20260901123036 66 259 0.0 0.0 0.00 0.00 0.00 90 1011.0
20260901121518 65 259 0.0 0.0 0.00 0.00 0.00 91 1011.0
20260901120027 65 259 0.0 0.0 0.00 0.00 0.00 90 1011.0
20260901114517 65 259 0.0 0.0 0.00 0.00 0.00 90 1010.6
20260901113014 65 259 0.0 0.0 0.00 0.00 0.00 90 1010.5
20260901111516 65 259 0.0 0.0 0.00 0.00 0.00 89 1010.4
20260901110013 64 259 0.0 0.0 0.00 0.00 0.00 89 1010.6
20260901104514 65 259 0.0 0.0 0.00 0.00 0.00 89 1010.8
20260901103010 65 259 0.0 0.0 0.00 0.00 0.00 89 1011.1
20260901101508 65 259 0.0 0.0 0.00 0.00 0.00 88 1010.6
20260901100005 65 259 0.0 0.0 0.00 0.00 0.00 89 1010.7
20260901094510 65 259 0.0 0.0 0.00 0.00 0.00 88 1010.6
20260901093002 65 259 0.0 0.0 0.00 0.00 0.00 89 1010.6
20260901091502 65 259 0.0 0.0 0.00 0.00 0.00 89 1011.0
20260901090101 65 259 0.0 0.0 0.00 0.00 0.00 88 1011.0
20260901084557 66 259 0.0 0.0 0.00 0.00 0.00 88 1011.0
20260901083056 66 259 0.0 0.0 0.00 0.00 0.00 88 1010.6
20260901081552 66 259 0.0 0.0 0.00 0.00 0.00 87 1010.7
20260901080051 67 259 0.0 0.0 0.00 0.00 0.00 87 1010.7
20260901074549 67 259 0.0 0.0 0.00 0.00 0.00 87 1010.6
20260901073049 67 259 0.0 0.0 0.00 0.00 0.00 86 1010.7
20260901071545 67 259 0.0 0.0 0.00 0.00 0.00 87 1010.9
20260901070046 68 259 0.0 0.0 0.00 0.00 0.00 87 1010.8
20260901064542 68 259 0.0 0.0 0.00 0.00 0.00 86 1010.6
20260901063052 68 259 0.0 0.0 0.00 0.00 0.00 86 1010.6
20260901061545 68 259 0.0 0.0 0.00 0.00 0.00 86 1010.7
20260901060037 69 259 0.0 0.0 0.00 0.00 0.00 85 1010.7
20260901054536 69 259 0.0 0.0 0.00 0.00 0.00 85 1010.7
20260901053034 69 259 0.0 0.0 0.00 0.00 0.00 85 1010.6
20260901051512 69 259 0.0 0.0 0.00 0.00 0.00 84 1010.5
20260901050011 70 259 0.0 0.0 0.00 0.00 0.00 83 1010.4
20260901044509 71 259 0.0 0.0 0.00 0.00 0.00 82 1010.3